CAPE
528 677 691 745 743 914 815 596 640 456 447 443 222 152 295 357 273 164 319 460 0 0 310 487 239 320 444 185 58 478 424 129 373 233 295 166 108 124 200 72 24 56 91
524 688 601 610 611 698 624 512 357 415 485 350 122 357 408 506 346 296 411 338 138 103 87 434 527 628 503 492 429 271 292 236 318 653 583 545 286 136 173 341 362 80 28
569 564 650 599 581 561 584 370 383 437 464 442 394 406 285 377 373 496 488 351 424 546 215 311 338 288 380 650 844 699 671 541 225 331 370 369 520 253 322 434 554 476 178
635 540 552 483 514 477 482 458 431 365 353 328 346 421 324 337 407 495 376 406 294 566 558 417 305 266 212 221 613 1132 784 504 471 357 430 428 474 400 298 320 293 315 392
596 587 459 494 448 395 455 471 454 492 342 260 326 268 252 299 371 401 460 385 425 451 492 408 384 321 281 288 341 342 425 272 224 267 378 342 317 304 365 301 256 183 130
605 596 352 346 252 192 271 310 346 304 330 229 231 225 175 158 149 208 306 416 432 455 514 434 423 409 419 262 241 186 148 124 125 148 207 186 330 309 226 275 243 226 143
310 164 338 258 248 110 79 152 128 175 175 268 176 75 35 68 83 76 51 93 134 216 335 331 286 232 275 342 213 177 271 164 102 107 73 210 159 246 264 238 234 172 153
436 336 382 280 168 56 4 33 156 98 91 49 57 0 0 0 0 49 67 96 86 91 140 168 98 97 66 26 78 160 203 224 252 217 196 132 99 143 180 174 126 120 109
585 475 392 322 220 75 49 14 35 70 54 45 60 5 0 0 0 3 0 20 77 53 69 88 107 84 59 62 63 202 358 342 259 663 925 181 164 98 81 121 92 127 143
607 527 456 407 233 104 39 59 22 0 1 11 17 37 0 0 0 0 0 0 33 6 0 0 2 5 41 107 168 249 194 179 245 429 453 268 240 162 119 115 146 160 118
537 419 276 258 210 92 28 14 35 43 22 1 0 0 4 0 0 0 0 0 0 0 0 0 0 12 58 47 34 21 52 25 31 101 163 254 262 135 186 175 152 90 66
413 391 302 218 189 91 16 27 37 35 22 5 1 2 1 1 0 0 0 2 1 0 0 0 0 10 59 34 47 72 79 54 50 61 105 199 227 181 179 119 117 108 124
441 471 301 153 230 170 102 78 98 92 46 51 64 63 43 9 2 7 4 5 4 0 0 0 0 13 37 14 6 11 29 34 41 37 55 54 84 120 134 101 81 167 172
617 485 311 46 193 222 213 155 90 66 66 18 5 0 20 57 40 6 24 15 1 0 0 1 0 0 3 2 3 2 1 1 2 2 11 21 19 31 41 45 83 159 133
615 481 396 148 17 0 0 0 4 0 2 40 38 61 16 17 56 46 16 1 3 0 1 0 0 0 1 1 0 0 0 2 0 0 0 3 8 10 8 17 44 66 100
792 628 503 382 91 9 47 0 35 44 52 68 53 59 42 56 12 10 24 23 21 16 4 0 0 0 2 0 1 0 0 0 1 0 0 0 0 1 0 0 14 51 47
809 567 473 474 417 398 311 293 210 141 63 2 0 0 0 0 5 15 21 34 25 22 12 0 1 1 2 1 1 0 0 1 1 0 0 0 0 0 0 0 5 9 1
721 685 527 483 440 465 312 190 107 101 53 95 96 90 84 124 74 47 50 82 36 19 12 6 2 1 0 0 0 0 0 0 1 0 0 0 0 0 1 4 5 1 0
687 564 445 456 335 383 307 198 69 58 9 26 92 90 104 118 78 86 113 123 85 80 28 26 0 0 1 0 1 1 0 0 1 2 0 0 0 0 0 0 1 0 0
825 683 511 361 333 279 204 118 133 26 6 1 6 36 97 94 61 148 122 87 64 60 32 42 0 2 0 1 1 0 0 0 0 2 1 0 0 0 0 0 0 0 0
671 616 456 468 338 186 169 120 139 90 0 0 0 8 27 47 79 19 9 0 25 43 10 1 1 1 0 2 1 2 0 0 0 0 0 0 0 0 0 0 0 0 0
670 693 496 393 358 272 202 144 144 92 0 0 0 0 2 13 2 0 18 87 71 16 0 0 0 0 1 1 1 0 0 0 0 0 0 0 0 0 0 0 0 0 0
15 0 80 372 297 215 83 113 117 58 5 0 0 0 0 0 0 1 84 169 81 29 6 8 0 0 0 0 0 1 0 0 0 0 0 0 0 0 0 0 0 0 0
0 181 67 46 241 233 37 0 2 0 0 0 0 0 0 0 7 10 29 138 62 50 8 0 0 0 0 0 0 0 0 0 0 0 0 0 0 0 0 0 0 0 0
0 0 0 0 0 143 107 0 0 0 0 0 0 0 0 0 3 0 10 26 39 61 15 9 0 0 0 0 0 0 1 1 1 0 0 0 0 0 0 0 0 0 0
0 0 0 0 0 109 77 0 0 0 0 0 0 0 0 0 0 0 5 8 23 20 31 42 25 0 0 0 0 0 0 1 0 0 0 0 0 0 0 0 0 0 0
CIN
-82 -59 -50 -42 -31 -19 -25 -40 -41 -60 -64 -60 -66 -67 -52 -56 -56 -63 -60 -41 0 0 -48 -46 -68 -54 -35 -71 -108 -18 -16 -58 -8 -20 -6 -25 -56 -41 -15 -63 -78 -45 -25
-73 -55 -58 -53 -42 -40 -35 -42 -53 -54 -55 -68 -81 -59 -51 -54 -49 -53 -57 -57 -55 -67 -77 -50 -27 -37 -45 -39 -38 -53 -48 -50 -35 -3 -1 -1 -8 -44 -25 -2 0 -50 -74
-63 -60 -52 -57 -56 -53 -45 -54 -47 -44 -37 -50 -57 -55 -50 -47 -54 -48 -56 -67 -46 -45 -62 -59 -44 -38 -35 -26 -19 -22 -12 -14 -44 -27 -20 -24 -1 -16 -2 -1 0 0 -11
-32 -45 -54 -68 -51 -47 -41 -40 -41 -41 -44 -44 -43 -47 -58 -50 -47 -42 -54 -51 -60 -50 -46 -45 -33 -32 -37 -32 -19 -7 -12 -21 -19 -22 -18 -10 -6 -8 -9 -8 -11 -6 -3
-33 -34 -53 -55 -66 -52 -45 -37 -41 -38 -33 -45 -42 -47 -54 -49 -45 -42 -40 -41 -44 -52 -54 -45 -26 -29 -32 -39 -30 -22 -21 -21 -23 -25 -22 -28 -31 -18 -9 -9 -13 -16 -21
-39 -32 -46 -50 -67 -71 -54 -57 -40 -54 -41 -34 -30 -32 -55 -65 -71 -61 -58 -42 -59 -57 -61 -57 -49 -37 -30 -36 -35 -32 -36 -33 -36 -20 -25 -27 -22 -16 -20 -17 -16 -13 -17
-58 -63 -46 -43 -51 -71 -66 -66 -50 -42 -50 -45 -36 -44 -66 -63 -63 -75 -88 -73 -62 -55 -58 -69 -79 -73 -69 -45 -29 -34 -21 -23 -26 -24 -31 -14 -22 -16 -17 -16 -22 -22 -14
-43 -40 -35 -34 -45 -72 -108 -68 -48 -36 -63 -66 -25 0 0 0 0 -83 -82 -83 -84 -85 -81 -86 -86 -78 -81 -93 -65 -55 -33 -27 -12 -28 -22 -32 -31 -21 -18 -19 -30 -30 -20
-37 -39 -34 -33 -27 -40 -48 -65 -59 -46 -36 -55 -58 -26 0 0 0 -132 0 -109 -86 -85 -87 -85 -59 -55 -58 -68 -72 -58 -28 -19 -26 -10 -2 -28 -27 -25 -23 -28 -29 -27 -18
-31 -36 -37 -22 -23 -44 -44 -44 -64 0 -13 -50 -65 -56 0 0 0 -5 0 0 -76 -87 -7 -21 -26 -128 -68 -72 -76 -38 -57 -59 -44 -26 -30 -20 -26 -17 -27 -28 -23 -17 -19
-37 -37 -51 -47 -12 -32 -76 -73 -29 -49 -80 -30 0 0 -42 0 0 0 0 0 -7 0 0 0 0 -94 -58 -62 -92 -87 -45 -65 -67 -44 -34 -32 -29 -33 -25 -21 -23 -28 -24
-48 -44 -51 -46 -18 -34 -65 -24 -40 -36 -67 -72 -31 -74 -66 -61 0 0 0 -78 -43 0 0 0 0 -80 -45 -65 -40 -8 -12 -35 -48 -51 -47 -35 -67 -28 -21 -16 -19 -18 -7
-53 -37 -49 -53 -44 -31 -19 -21 -14 -18 -28 -32 -38 -30 -40 -66 -80 -55 -36 -33 -36 0 0 0 0 -108 -49 -89 -87 -23 -9 -30 -51 -58 -54 -55 -45 -33 -21 -29 -18 -1 0
-31 -38 -47 -96 -56 -36 -20 -28 -38 -34 -25 -35 -51 0 -50 -26 -26 -31 -15 -15 -4 -11 0 -111 0 -17 -66 -16 -19 0 -4 -6 -56 -77 -79 -69 -56 -31 -33 -27 -12 -2 -2
-46 -52 -41 -51 -93 0 0 0 -84 0 -24 -46 -36 -21 -28 -46 -23 -21 -36 -64 -35 0 -23 0 0 0 0 0 0 0 -7 -3 0 0 0 -87 -66 -49 -61 -15 -10 -42 -16
-51 -61 -54 -46 -63 -39 -82 0 -22 -52 -43 -37 -38 -38 -30 -24 -90 -34 -27 -29 -25 -14 -19 0 0 0 -66 0 0 0 -7 -7 -16 -25 0 0 0 -71 0 0 -16 -6 -12
-82 -102 -94 -63 -41 -31 -28 -24 -24 -28 -46 -12 0 0 0 0 -24 -33 -34 -26 -28 -22 -16 0 0 0 -48 0 0 0 0 0 0 0 -11 0 0 0 0 0 -13 -18 -26
-135 -121 -120 -95 -84 -72 -71 -54 -41 -27 -29 -24 -38 -36 -28 -22 -27 -32 -33 -25 -25 -32 -31 -26 0 0 0 0 0 0 0 0 0 0 0 0 0 0 -15 -17 -17 -24 0
-97 -107 -128 -129 -147 -93 -70 -55 -42 -24 -37 -33 -35 -31 -17 -17 -15 -22 -25 -24 -40 -49 -85 -71 0 0 0 0 0 0 0 0 0 0 0 0 0 0 0 0 -13 0 0
-150 -201 -175 -144 -145 -124 -110 -91 -74 -83 -90 -17 -44 -33 -23 -19 -15 -15 -18 -32 -39 -38 -53 -58 0 0 0 0 0 0 0 0 0 0 0 0 0 0 0 0 0 0 0
-35 -26 -35 -67 -107 -155 -140 -138 -109 -99 0 0 0 -64 -42 -40 -26 -24 -7 0 -74 -64 -44 0 0 0 0 -31 -22 0 0 0 0 0 0 0 0 0 0 0 0 0 0
-42 -27 -31 -19 -22 -51 -105 -112 -89 -128 0 0 0 0 -86 -70 -92 0 -44 -31 -41 -68 0 0 0 0 0 0 0 0 0 0 0 0 0 0 0 0 0 0 0 0 0
-236 0 -36 -26 -60 -28 -101 -157 -118 -151 -107 0 0 0 0 0 0 -24 -52 -21 -36 -60 -40 -50 0 0 0 0 0 0 0 0 0 0 0 0 0 0 0 0 0 0 0
0 -133 -264 -231 -104 -134 -123 0 -107 0 0 0 0 0 0 0 -141 -94 -63 -12 -27 -35 -28 0 0 0 0 0 0 0 0 0 0 0 0 0 0 0 0 0 0 0 0
0 0 0 0 -36 -59 -136 -15 0 0 0 0 0 0 0 0 -99 0 -60 -43 -44 -23 -64 -62 0 0 0 0 0 0 0 0 0 0 0 0 0 0 0 0 0 0 0
0 0 0 0 0 -105 -101 0 0 0 0 0 0 0 0 0 0 0 -37 -55 -47 -73 -53 -33 -52 0 0 0 0 0 0 -2 0 -1 0 0 0 0 0 0 0 0 0
Wind_Speed
20 26 26 8 5 6 14 14 16 19 22 25 24 25 26 26 26 25 22 12 12 12 9 9 8 8 7 7 6 7 7 6 5 5 4 5 6 3 5 5 4 4 6
22 15 2 2 4 3 6 14 16 15 20 23 27 26 28 28 25 13 12 6 11 8 8 6 4 5 5 5 5 5 6 5 4 4 4 4 6 9 7 3 3 3 3
16 6 2 4 1 7 5 19 21 21 22 21 27 29 25 24 24 18 11 0 1 5 5 5 3 3 3 4 5 5 5 3 2 2 1 3 5 6 5 2 4 1 1
10 11 13 6 8 10 15 17 21 23 19 19 21 22 23 22 24 24 17 7 4 6 2 6 4 3 3 4 4 4 4 4 4 3 3 3 4 5 5 4 2 1 2
8 10 10 10 12 8 8 13 18 19 20 19 15 20 22 23 24 24 15 8 5 5 6 5 4 5 5 5 4 4 5 6 5 5 6 8 7 7 5 5 6 4 3
10 15 14 21 17 15 14 15 13 14 19 18 17 17 19 23 24 22 21 19 14 10 11 10 9 8 9 8 8 10 7 6 6 12 10 11 10 7 5 5 8 6 4
5 7 11 16 14 18 17 15 16 17 16 16 17 22 23 24 21 21 20 20 17 17 17 17 16 15 14 11 9 8 8 8 18 10 14 14 14 12 6 4 3 8 6
3 5 7 7 9 17 23 19 16 19 20 16 18 19 22 23 22 23 22 22 20 17 18 20 20 18 15 15 16 20 17 8 7 10 12 11 13 9 5 4 4 5 4
1 3 4 9 13 11 14 22 19 22 24 20 18 19 20 22 21 20 20 20 18 18 19 20 20 15 12 13 23 26 23 8 10 6 9 5 4 7 3 5 8 8 9
2 8 6 3 7 8 7 26 26 23 22 23 23 22 23 19 20 21 20 18 17 17 17 18 19 19 18 20 25 27 26 19 20 19 7 3 5 5 5 7 10 12 12
7 8 18 7 6 5 7 10 27 22 21 22 21 20 20 22 21 23 22 19 19 17 18 20 19 20 21 22 19 22 23 19 16 14 10 9 7 8 5 5 8 9 10
10 21 21 9 5 6 13 15 18 21 21 20 23 21 20 19 19 19 22 22 22 18 19 20 19 15 15 20 20 21 20 17 15 14 12 11 9 8 7 6 8 8 8
11 12 14 18 15 12 16 13 11 8 22 25 23 23 23 17 22 20 18 19 20 16 19 19 19 18 14 17 17 17 16 14 13 12 10 8 8 7 7 7 7 7 6
10 9 10 9 10 10 16 14 7 4 21 21 21 21 21 21 17 15 13 13 17 18 17 18 15 15 11 13 15 15 14 13 11 10 9 8 7 7 7 7 7 7 5
11 9 9 9 9 8 9 6 5 4 4 20 23 20 19 20 14 15 12 14 18 20 17 17 14 12 9 10 12 12 13 12 11 10 10 9 8 8 8 8 8 6 6
12 11 11 10 9 8 7 6 4 10 7 4 14 19 20 18 13 16 15 16 11 16 20 14 11 11 9 10 9 11 11 11 10 9 9 10 10 10 9 8 6 6 6
11 10 10 8 8 8 7 6 6 4 3 5 10 12 14 18 21 20 16 17 15 15 15 17 14 11 8 7 8 11 11 11 10 10 10 10 10 9 8 7 6 6 5
8 8 8 7 6 6 6 6 7 8 7 3 5 9 12 16 18 23 22 17 13 13 17 16 16 11 10 6 4 8 11 11 11 11 10 10 9 9 8 7 6 5 4
7 6 6 6 6 6 5 6 7 5 8 8 6 14 24 20 21 22 22 24 23 19 15 15 15 12 12 8 8 9 9 13 12 12 11 10 9 8 7 6 5 5 5
4 4 4 4 5 5 5 6 5 7 8 10 11 11 15 16 22 20 20 21 21 19 15 14 14 13 11 10 9 9 11 16 13 13 12 11 10 8 7 7 6 7 7
7 9 8 5 4 5 5 6 7 8 9 12 13 10 9 11 14 19 19 18 14 13 12 11 11 14 10 7 7 11 10 16 16 15 11 10 9 10 8 7 7 7 7
15 12 14 12 12 6 3 6 9 9 8 9 12 12 10 12 14 18 17 11 10 10 11 11 10 9 9 8 1 4 5 14 20 14 12 11 10 9 7 7 6 7 8
25 27 30 20 11 5 6 6 9 9 9 9 10 10 11 10 11 16 19 10 11 10 13 11 13 11 7 2 1 3 3 4 10 17 11 17 11 11 10 10 8 9 10
15 8 22 32 11 10 7 7 7 9 10 11 10 9 6 7 9 12 14 13 12 12 16 17 16 12 10 5 2 5 8 12 16 15 12 19 14 14 13 11 9 9 9
10 11 13 19 18 17 13 8 5 8 9 10 12 10 5 5 7 8 10 11 13 14 15 15 17 17 13 10 8 11 11 11 16 17 12 18 17 16 15 14 13 9 9
15 12 15 17 18 25 16 10 8 7 8 8 10 10 5 5 8 5 8 10 11 14 12 12 15 16 15 13 10 9 10 12 16 18 14 13 15 15 20 17 14 13 13
Wind_Direction
165 190 193 125 320 316 281 277 272 265 256 248 248 242 239 240 233 243 270 141 145 146 135 131 136 133 134 134 131 135 135 130 123 119 109 125 122 92 359 24 52 52 18
176 244 124 119 313 320 311 280 278 283 268 261 247 254 239 247 262 285 317 130 149 151 147 142 131 147 154 154 152 159 163 160 154 150 140 140 150 157 154 105 25 18 48
171 161 172 157 203 293 299 271 267 273 270 272 257 257 268 275 273 292 319 112 273 164 174 176 169 170 179 186 183 185 186 195 209 195 187 173 169 169 168 159 168 179 117
277 281 283 274 285 288 283 279 272 269 277 280 281 279 281 283 277 281 303 308 302 319 258 200 208 218 236 207 216 218 226 247 267 263 235 216 207 195 193 189 196 202 208
273 275 275 278 279 273 273 282 277 276 275 282 294 288 283 283 285 287 302 309 298 296 308 290 264 241 241 241 244 254 227 217 225 255 237 210 211 209 219 206 200 209 221
285 282 279 276 278 279 278 277 276 278 280 282 288 294 293 285 285 293 294 301 309 309 313 314 311 286 233 234 288 300 272 240 247 215 219 214 213 216 220 209 201 210 219
200 194 282 280 277 274 276 276 273 277 278 283 286 288 288 285 288 293 297 299 306 310 310 315 314 311 307 305 298 284 240 229 219 223 215 209 209 206 217 229 226 204 206
205 223 275 272 273 279 272 274 272 273 272 278 287 292 289 287 289 291 293 297 304 311 309 313 313 312 311 310 309 309 287 235 238 226 216 215 210 215 235 291 312 323 326
170 282 257 285 281 274 269 269 269 265 269 276 282 290 294 292 296 297 296 301 307 312 314 317 319 324 320 313 299 299 305 299 295 277 219 224 228 206 258 306 322 327 331
81 335 319 249 209 239 256 264 264 266 272 274 282 286 290 299 297 294 297 303 308 313 319 321 322 319 325 315 297 297 303 315 311 310 307 241 288 300 305 318 322 324 329
130 353 309 330 178 193 212 236 262 267 273 278 282 289 287 290 292 289 294 301 304 310 312 311 321 319 313 307 322 311 311 316 321 317 318 312 310 318 322 337 333 344 341
137 246 284 357 109 143 172 180 264 268 273 282 282 285 284 290 287 290 293 294 297 306 302 306 320 333 331 313 317 316 318 320 326 331 333 327 323 326 332 346 338 343 357
141 165 190 211 161 134 164 161 166 270 281 280 288 287 285 282 286 290 293 296 295 300 301 308 311 321 335 327 324 327 326 331 334 340 348 350 342 343 350 345 346 359 18
130 107 111 87 77 113 171 160 130 312 291 292 292 292 294 290 287 292 296 294 295 297 303 308 322 324 340 337 333 329 332 332 340 346 351 352 359 350 345 353 354 359 42
142 114 102 96 92 79 113 69 38 43 24 303 293 297 296 294 300 290 298 296 288 294 300 306 314 321 334 340 337 339 330 337 340 342 350 350 341 331 335 333 338 7 68
146 132 117 114 103 104 97 99 28 336 353 25 325 306 301 302 304 295 296 292 292 293 293 313 309 318 318 324 337 333 332 338 338 343 346 348 337 321 322 333 357 48 85
139 119 118 104 114 119 81 52 120 52 83 358 336 330 325 312 300 298 302 298 296 293 295 299 302 309 308 312 325 317 319 327 331 330 332 336 337 336 346 359 27 63 68
115 119 109 110 116 110 71 57 35 12 14 64 154 335 327 318 315 296 296 302 304 297 294 296 297 306 305 284 319 316 305 312 318 314 322 325 328 331 343 3 30 50 36
97 77 70 68 62 89 68 45 22 35 12 355 351 321 294 308 304 302 301 294 297 304 306 302 302 304 298 290 296 308 312 294 302 309 313 316 325 330 344 4 8 359 345
121 100 58 47 54 40 46 54 44 15 358 355 346 340 324 316 307 308 306 305 304 308 310 304 301 299 294 286 275 285 288 277 295 299 306 315 322 329 336 336 341 341 334
337 343 349 6 15 26 37 39 33 23 3 343 341 345 340 339 333 313 310 314 322 323 323 319 315 305 309 306 266 276 287 276 288 293 308 311 318 319 326 337 337 335 331
317 322 326 323 325 337 355 351 356 5 17 360 341 337 342 337 332 316 320 328 328 329 327 316 318 317 304 297 84 149 292 286 281 297 306 305 311 311 317 323 325 323 320
319 311 303 305 303 263 308 329 333 347 358 0 348 337 332 342 343 321 309 337 330 324 319 319 309 309 309 204 212 207 221 295 303 297 300 298 308 304 306 307 308 310 309
321 250 300 288 265 263 263 295 319 335 343 345 354 351 349 343 342 337 326 329 328 322 312 305 307 317 315 314 234 279 286 293 299 301 305 301 309 303 306 301 297 299 303
299 253 289 274 273 264 260 260 291 317 332 337 340 347 29 22 350 348 349 346 332 320 322 314 302 305 313 315 310 300 297 296 297 298 297 302 308 306 310 304 301 289 294
303 297 276 284 247 260 252 244 271 305 319 337 338 337 9 21 360 5 349 344 337 330 331 333 315 311 313 316 319 312 306 299 302 304 305 301 308 309 311 308 304 300 298